Weather History for Molokai, HI

Change the Weather History Date:

Tuesday, April 8, 2014

  Actual Average Record
Temperature  
Mean Temperature 68 °F -  
Max Temperature 73 °F 79 °F 85 °F (1981)
Min Temperature 64 °F 64 °F 48 °F (2011)
Cooling Degree Days 4    
Growing Degree Days 18 (Base 50)    
Moisture  
Dew Point 59 °F    
Average Humidity 70    
Maximum Humidity 93    
Minimum Humidity 59    
Precipitation  
Precipitation 0.10 in - - ()
Sea Level Pressure  
Sea Level Pressure 30.08 in    
Wind  
Wind Speed 14 mph (NE)    
Max Wind Speed 17 mph    
Max Gust Speed 29 mph    
Visibility 10 miles    
Events Rain    
Averages and records for this station are not official NWS values.
T = Trace of Precipitation, MM = Missing Value Source: NWS Daily Summary

Daily Weather History Graph

Daily Weather History Graph

Search for Another Location

Airport:

Trip Planner

Search our weather history database for the weather conditions in past years. The results will help you decide how hot, cold, wet, or windy it might be!

Date:

Astronomy

Apr. 08, 2014 Rise Set
Actual Time 6:15 AM HST 6:45 PM HST
Civil Twilight 5:52 AM HST 7:07 PM HST
Nautical Twilight 5:26 AM HST 7:34 PM HST
Astronomical Twilight 4:59 AM HST 8:00 PM HST
Moon 1:29 PM HST (4/8) 1:52 AM HST (4/8)
Length of Visible Light 13h 15m
Length of Day
12h 30m
Waxing Gibbous, 65% of the Moon is Illuminated
Apr 8
Waxing Gibbous
Apr 14
Full
Apr 21
Last Quarter
Apr 28
New
May 6
First Quarter

Hourly Weather History & Observations

Time (HST) Temp. Dew Point Humidity Pressure Visibility Wind Dir Wind Speed Gust Speed Precip Events Conditions
12:54 AM 64.9 °F 62.1 °F 90% 30.11 in 8.0 mi NNE 13.8 mph 25.3 mph 0.03 in Rain Light Rain
1:54 AM 64.9 °F 63.0 °F 93% 30.10 in 4.0 mi NNE 13.8 mph 24.2 mph 0.01 in Rain Light Rain
2:46 AM - - N/A% 30.07 in 9.0 mi NNE 12.7 mph 24.2 mph 0.04 in Rain Light Rain
2:54 AM - - N/A% 30.07 in 9.0 mi NNE 16.1 mph 27.6 mph 0.04 in Rain Light Rain
3:23 AM - - N/A% 30.06 in 8.0 mi NNE 11.5 mph 23.0 mph 0.02 in Rain Light Rain
3:54 AM 64.0 °F 62.1 °F 93% 30.05 in 9.0 mi NNE 13.8 mph 28.8 mph 0.02 in Rain Light Rain
4:51 AM 66.2 °F 60.8 °F 83% 30.07 in 10.0 mi NNE 12.7 mph 26.5 mph 0.00 in Rain Light Rain
4:54 AM 64.9 °F 62.1 °F 90% 30.07 in 10.0 mi NNE 17.3 mph 26.5 mph 0.00 in Rain Light Rain
5:54 AM 66.0 °F 57.9 °F 75% 30.08 in 10.0 mi NNE 12.7 mph 25.3 mph 0.00 in Rain Light Rain
6:54 AM 66.9 °F 57.0 °F 70% 30.09 in 10.0 mi NNE 17.3 mph 27.6 mph 0.00 in Rain Light Rain
7:54 AM 68.0 °F 57.0 °F 68% 30.10 in 10.0 mi NNE 17.3 mph 24.2 mph 0.00 in Rain Light Rain
8:54 AM 69.1 °F 55.9 °F 63% 30.12 in 10.0 mi NE 17.3 mph 24.2 mph 0.00 in Rain Light Rain
9:54 AM 71.1 °F 59.0 °F 66% 30.12 in 10.0 mi NE 11.5 mph 18.4 mph 0.00 in Rain Light Rain
10:54 AM 71.1 °F 59.0 °F 66% 30.12 in 10.0 mi NE 15.0 mph 24.2 mph 0.00 in Rain Light Rain
11:54 AM 71.1 °F 57.9 °F 63% 30.11 in 10.0 mi NE 16.1 mph 25.3 mph 0.00 in Rain Light Rain
12:54 PM 73.9 °F 59.0 °F 59% 30.09 in 10.0 mi NE 15.0 mph 27.6 mph 0.00 in Rain Light Rain
1:54 PM 73.4 °F 59.0 °F 61% 30.08 in 10.0 mi NE 12.7 mph 26.5 mph N/A   Partly Cloudy
2:24 PM 73.4 °F 60.8 °F 65% 30.05 in 10.0 mi NNE 15.0 mph 24.2 mph N/A   Scattered Clouds
2:54 PM 72.0 °F 61.0 °F 68% 30.04 in 10.0 mi NE 13.8 mph 24.2 mph N/A   Mostly Cloudy
3:54 PM 73.0 °F 63.0 °F 71% 30.04 in 10.0 mi NNE 16.1 mph 27.6 mph N/A   Scattered Clouds
4:54 PM 72.0 °F 60.1 °F 66% 30.04 in 10.0 mi NNE 15.0 mph 28.8 mph N/A   Scattered Clouds
5:54 PM 70.0 °F 57.9 °F 65% 30.05 in 10.0 mi NE 16.1 mph 28.8 mph N/A   Partly Cloudy
6:54 PM 69.1 °F 57.9 °F 68% 30.06 in 10.0 mi NE 16.1 mph 25.3 mph N/A   Partly Cloudy
7:54 PM 69.1 °F 57.9 °F 68% 30.09 in 10.0 mi NE 16.1 mph 25.3 mph N/A   Clear
8:54 PM 69.1 °F 55.0 °F 61% 30.10 in 10.0 mi NE 12.7 mph 26.5 mph N/A   Clear
9:54 PM 68.0 °F 54.0 °F 61% 30.10 in 10.0 mi NE 9.2 mph 24.2 mph N/A   Clear
10:09 PM 69.8 °F 55.4 °F 60% 30.08 in 10.0 mi NNE 13.8 mph 24.2 mph N/A   Partly Cloudy
10:54 PM 69.1 °F 59.0 °F 70% 30.10 in 10.0 mi NE 16.1 mph 25.3 mph N/A   Scattered Clouds
11:54 PM 69.1 °F 55.9 °F 63% 30.11 in 10.0 mi NE 13.8 mph 20.7 mph N/A   Partly Cloudy